Flag for Italy Weather past 2 weeks in Trieste, Italy

Now
67 °F

Passing clouds.


Feels Like: 67 °F
Forecast: 65 / 85 °F
Wind: 8 mph from East

Location: Trieste

Current Time: Jul 14, 2014 at 4:47:37 AM

Latest Report: Jul 14, 2014 at 4:00 AM


Visibility: 13 mi

Pressure: 29.88 "Hg

Humidity: 75%

Dew point: 59 °F

Location of TriesteLocation

Historic Weather in Trieste — Graph

°F

Trieste temperature yesterday

Maximum temperature yesterday: 78 °F (at 6:00 PM)
Minimum temperature yesterday: 63 °F (at 3:00 AM)
Average temperature yesterday: 70 °F

Past Weeks' High & Low Weather Summary

 TemperatureHumidityPressure
High83 °F (Jul 7, 2:00 PM)97% (Jun 30, 3:00 AM)30.26 "Hg (Jun 30, 3:00 AM)
Low60 °F (Jul 10, 1:00 AM)36% (Jul 3, 11:00 AM)29.62 "Hg (Jul 10, 6:00 AM)
Average71 °F69%29.90 "Hg
* Reported Jun 29 3:00 AM — Jul 14 3:00 AM, Trieste, Weather by CustomWeather, © 2014

Note: Actual official high and low records may vary slightly from our data, if they occured in-between our weather recording intervals... More about our weather records

Advertising

Trieste weather history for previous 24 hours

 ConditionsComfort  
Time TempWeatherWind HumidityBarometerVisibility
3:00 AM
Jul 14
66 °FPassing clouds.9 mph77%29.88 "Hg12 mi
2:00 AM66 °FPassing clouds.7 mph84%29.89 "Hg12 mi
1:00 AM67 °FPassing clouds.9 mph83%29.90 "Hg12 mi
12:00 AM68 °FPassing clouds.8 mph82%29.89 "Hg12 mi
11:00 PM
Jul 13
68 °FPassing clouds.12 mph80%29.88 "Hg12 mi
10:00 PM68 °FOvercast.9 mph84%29.88 "Hg12 mi
9:00 PM68 °FOvercast.8 mph84%29.87 "Hg12 mi
8:00 PM70 °FOvercast.10 mph76%29.86 "Hg6 mi
7:00 PM77 °FPartly sunny.13 mph65%29.85 "Hg12 mi
6:00 PM78 °FPartly sunny.9 mph62%29.86 "Hg12 mi
5:00 PM75 °FScattered clouds.7 mph65%29.87 "Hg12 mi
4:00 PM75 °FScattered clouds.6 mph65%29.88 "Hg12 mi
2:00 PM74 °FThunderstorms. Overcast.5 mph68%29.88 "Hg12 mi
1:00 PM75 °FThunderstorms. Partly sunny.6 mph64%29.89 "Hg12 mi
12:00 PM73 °FPartly sunny.7 mph65%29.89 "Hg12 mi
11:00 AM72 °FLight rain. Overcast.5 mph71%29.89 "Hg12 mi
10:00 AM72 °FOvercast.6 mph64%29.89 "Hg12 mi
8:00 AM65 °FOvercast.9 mph79%29.87 "Hg12 mi
7:00 AM63 °FOvercast.2 mph90%29.88 "Hg12 mi
Weather by CustomWeather, © 2014

See weather overviewHow to use our weather pages